Weather History for Doylestown, PA

Change the Weather History Date:

Saturday, February 8, 2014

  Actual Average (KTTN) Record (KTTN)
Temperature  
Mean Temperature 21 °F 33 °F  
Max Temperature 25 °F 41 °F 62 °F (1933)
Min Temperature 17 °F 25 °F -8 °F (1934)
Degree Days  
Heating Degree Days 44 32  
Month to date heating degree days 262  
Since 1 July heating degree days 3208  
Cooling Degree Days 0 0  
Month to date cooling degree days 0  
Year to date cooling degree days 0  
Moisture  
Dew Point 9 °F    
Average Humidity 62    
Maximum Humidity 75    
Minimum Humidity 40    
Precipitation  
Precipitation 0.00 in 0.09 in 0.78 in (1900)
Month to date precipitation 0.57  
Year to date precipitation 3.73  
Sea Level Pressure  
Sea Level Pressure 30.29 in    
Wind  
Wind Speed 3 mph (WNW)    
Max Wind Speed 6 mph    
Max Gust Speed -    
Visibility 10 miles    
Events Snow    
T = Trace of Precipitation, MM = Missing Value Source: NWS Daily Summary

Daily Weather History Graph

Daily Weather History Graph

Search for Another Location

Airport:

Trip Planner

Search our weather history database for the weather conditions in past years. The results will help you decide how hot, cold, wet, or windy it might be!

Date:

Astronomy

Feb. 08, 2014 Rise Set
Actual Time 7:02 AM EST 5:27 PM EST
Civil Twilight 6:34 AM EST 5:55 PM EST
Nautical Twilight 6:01 AM EST 6:28 PM EST
Astronomical Twilight 5:30 AM EST 6:59 PM EST
Moon 12:19 PM EST (2/8) 2:12 AM EST (2/8)
Length of Visible Light 11h 21m
Length of Day
10h 25m
Waxing Gibbous, 68% of the Moon is Illuminated
Feb 8
Waxing Gibbous
Feb 14
Full
Feb 22
Last Quarter
Mar 1
New
Mar 8
First Quarter

Hourly Weather History & Observations

Time (EST) Temp. Windchill Dew Point Humidity Pressure Visibility Wind Dir Wind Speed Gust Speed Precip Events Conditions
12:54 AM 19.9 °F 12.1 °F 10.0 °F 65% 30.32 in 10.0 mi WNW 5.8 mph - N/A   Clear
1:54 AM 17.1 °F - 10.0 °F 74% 30.33 in 10.0 mi Calm Calm - N/A   Clear
2:54 AM 19.0 °F 12.3 °F 6.1 °F 57% 30.34 in 10.0 mi West 4.6 mph - N/A   Clear
3:54 AM 18.0 °F 11.1 °F 5.0 °F 57% 30.35 in 10.0 mi WNW 4.6 mph - N/A   Clear
4:54 AM 17.1 °F 10.0 °F 7.0 °F 65% 30.36 in 10.0 mi West 4.6 mph - N/A   Clear
5:54 AM 17.1 °F 11.7 °F 7.0 °F 65% 30.34 in 10.0 mi WNW 3.5 mph - N/A   Clear
6:54 AM 17.1 °F 10.0 °F 3.9 °F 56% 30.34 in 10.0 mi NW 4.6 mph - N/A   Clear
7:54 AM 17.1 °F - 5.0 °F 59% 30.35 in 10.0 mi Calm Calm - N/A   Clear
8:54 AM 18.0 °F - 3.9 °F 54% 30.37 in 10.0 mi Calm Calm - N/A   Clear
9:54 AM 19.9 °F 13.4 °F 3.0 °F 48% 30.35 in 10.0 mi NW 4.6 mph - N/A   Clear
10:54 AM 23.0 °F 17.0 °F 1.9 °F 40% 30.32 in 10.0 mi NNW 4.6 mph - N/A   Partly Cloudy
11:54 AM 23.0 °F 15.8 °F 3.0 °F 42% 30.32 in 10.0 mi WNW 5.8 mph - N/A   Mostly Cloudy
12:54 PM 25.0 °F 19.3 °F 6.1 °F 45% 30.27 in 10.0 mi WNW 4.6 mph - N/A   Overcast
1:54 PM 25.0 °F 18.1 °F 6.1 °F 45% 30.28 in 10.0 mi West 5.8 mph - N/A   Overcast
2:54 PM 23.0 °F 18.4 °F 12.0 °F 63% 30.28 in 9.0 mi Variable 3.5 mph - 0.00 in Snow Light Snow
3:54 PM 23.0 °F - 16.0 °F 74% 30.26 in 10.0 mi Calm Calm - 0.00 in   Overcast
4:54 PM 23.0 °F - 14.0 °F 68% 30.24 in 10.0 mi Calm Calm - N/A   Partly Cloudy
5:54 PM 23.0 °F 18.4 °F 15.1 °F 72% 30.23 in 10.0 mi WSW 3.5 mph - N/A   Overcast
6:54 PM 23.0 °F - 15.1 °F 72% 30.23 in 10.0 mi Calm Calm - N/A   Overcast
7:54 PM 21.9 °F 17.2 °F 15.1 °F 75% 30.21 in 10.0 mi NW 3.5 mph - N/A   Mostly Cloudy
8:54 PM 21.9 °F 17.2 °F 15.1 °F 75% 30.21 in 10.0 mi West 3.5 mph - N/A   Overcast
9:54 PM 21.9 °F 17.2 °F 14.0 °F 72% 30.19 in 10.0 mi WNW 3.5 mph - N/A   Partly Cloudy
10:54 PM 19.9 °F - 12.0 °F 71% 30.19 in 10.0 mi Calm Calm - N/A   Clear
11:54 PM 19.0 °F - 10.9 °F 71% 30.20 in 10.0 mi Calm Calm - N/A   Clear